www.pogodaiklimat.ru

Погода и климат >> Архив погоды >> Россия >> Новосибирская область >> Новосибирск


АРХИВ ПОГОДЫ в Новосибирске

Время (UTC), дата Ветер
(напр.,м/с)
 
Видим.   Явления Облачность Т
(С)
Тd
(С)
f
(%)
Тe
(С)
Тes
(С)
Комфортность P
(гПа)
Po
(гПа)
Тmin
(С)
Tmax
(С)
R
(мм)
R24
(мм)
S
(см)
18 9.02 СВ 1 20 км 10/4 1500 м
[Sc Ci fib]
-25.0 -30.3 61 -29 -29 1035.1 1016.5
21 9.02 штиль 0 20 км 9/5 1000 м
[Sc Ci fib]
-23.8 -28.7 64 -24 -24 1032.9 1014.4
00 10.02 штиль 0 20 км 8/6 1500 м
[Sc Ci fib]
-22.7 -27.8 63 -23 -23 1030.7 1012.3 -26.7 46
03 10.02 СВ 1 7000 м дым 10/6 1000 м
[Sc Ci fib]
-23.5 -28.4 64 -27 -27 1029.5 1011.1
06 10.02 штиль 0 6000 м дым 10/0
[Cs]
-17.7 -24.7 54 -18 -15 1028.1 1010.1
09 10.02 С 1 9000 м дым 10/0
[Ci sp]
-11.9 -23.9 36 -14 -13 1026.3 1008.8
12 10.02 штиль 0 10 км 8/0
[Ci fib]
-20.0 -26.7 55 -20 -20 1026.9 1008.8 -11.1
15 10.02 штиль 0 10 км ясно -23.7 -28.6 64 -24 -24 1028.0 1009.6
18 10.02 штиль 0 10 км 10/0
[Ci fib]
-25.0 -28.7 71 -25 -25 1028.5 1010.0
21 10.02 штиль 0 10 км 10/0
[As op]
-22.7 -26.1 74 -23 -23 1028.8 1010.5
00 11.02 Ю 1 10 км 10/0
[As trans]
-22.5 -26.1 72 -26 -26 1029.4 1011.1 -25.8 46
03 11.02 ЮВ 1 15 км 10/0
[Ac As Ci fib]
-21.3 -25.1 71 -24 -24 1030.0 1011.8
06 11.02 Ю 3 17 км 8/0
[Cs]
-17.7 -22.8 64 -25 -23 1030.6 1012.6
09 11.02 Ю 3 20 км 8/0
[Ci fib]
-15.3 -21.2 61 -22 -21 1030.7 1012.9
12 11.02 Ю 1 10 км слаб. снег 10/0
[Cs]
-18.3 -22.6 69 -21 -21 1031.5 1013.4 -15.0 0.0
15 11.02 Ю 1 4000 м слаб. снег 10/3 600 м
[Sc Cs]
-19.4 -22.5 76 -22 -22 1031.9 1013.7
18 11.02 штиль 0 4000 м слаб. снег 10/5 600 м
[Sc Cs]
-21.9 -24.7 78 -22 -22 1032.3 1014.0
21 11.02 штиль 0 4000 м слаб. снег 10/3 1000 м
[Sc Cs]
-23.2 -26.0 78 -23 -23 1032.6 1014.2
00 12.02 штиль 0 1000 м слаб. снег 10/4 600 м
[Sc Cs]
-24.9 -27.9 76 -25 -25 1033.4 1014.8 -25.1 0.2 46
03 12.02 штиль 0 400 м туман {снег} 10/0
[Cs]
-23.1 -25.9 78 -23 -23 1033.9 1015.5
06 12.02 ЮВ 1 4500 м дымка {снег, туман} 10/0
[Cs]
-18.0 -20.5 81 -21 -18 1034.6 1016.5
09 12.02 штиль 0 15 км 10/0
[Cs]
-12.2 -17.6 64 -12 -11 1034.2 1016.5
12 12.02 штиль 0 20 км ясно -20.3 -23.6 75 -20 -20 1035.8 1017.5 -10.3 0.0
15 12.02 Ю 2 20 км 3/0
[Ci fib]
-23.5 -26.5 76 -30 -30 1036.7 1018.2
18 12.02 Ю 1 10 км слаб. снег 10/0
[Cs]
-23.8 -26.7 77 -27 -27 1036.9 1018.3
21 12.02 Ю 2 10 км слаб. снег 10/10 1000 м
[Sc]
-19.3 -21.9 80 -25 -25 1036.9 1018.7
00 13.02 Ю 3 10 км слаб. снег 10/10 1000 м
[Sc]
-16.1 -18.7 80 -23 -23 1036.1 1018.1 -24.4 0.0 46
03 13.02 Ю 5 20 км {снег} 10/3 600 м
[Sc Ac lent Ci fib]
-15.4 -18.2 79 -24 -24 1035.0 1017.1
06 13.02 Ю 5
{10}
1500 м ливневой снег 10/10 600 м
[Cb cap]
-14.2 -16.8 81 -23 -23 1035.4 1017.5
09 13.02 Ю 4 2800 м ливневой снег 10/10 600 м
[Cb cap]
-13.3 -15.8 81 -21 -21 1035.0 1017.3
12 13.02 Ю 3 4000 м слаб. ливневой снег {метель} 10/10 600 м
[Cb cap]
-13.3 -15.6 83 -20 -20 1035.7 1017.9 -13.3 2
15 13.02 Ю 3 4000 м слаб. ливневой снег 10/10 600 м
[Cb cap]
-12.9 -15.6 80 -19 -19 1035.6 1017.8
18 13.02 Ю 3 4000 м слаб. ливневой снег 10/10 600 м
[Cb cap]
-12.6 -15.0 82 -19 -19 1035.6 1017.8
21 13.02 Ю 3 4000 м слаб. ливневой снег 10/10 600 м
[Cb cap]
-12.7 -15.2 82 -19 -19 1035.6 1017.9
00 14.02 Ю 3 4000 м слаб. ливневой снег 10/10 600 м
[Cb cap]
-12.9 -15.3 82 -19 -19 1035.3 1017.5 -13.3 0.2 51
03 14.02 Ю 3 5000 м слаб. ливневой снег 10/10 600 м
[Cb cap]
-13.4 -15.6 83 -20 -20 1035.7 1017.9 -13.7
06 14.02 Ю 3 13 км {ливн. осадки} 10/0
[Ac trans Cc]
-12.5 -15.7 77 -19 -17 1035.8 1018.0
09 14.02 Ю 3 15 км 10/6 600 м
[Cb cap Ac trans Ci fib]
-11.8 -15.7 73 -18 -17 1035.9 1018.2
12 14.02 Ю 2 10 км в посл. час ливневой снег 10/10 600 м
[Cb cap]
-11.0 -14.6 75 -15 -15 1035.6 1018.0 -11.0 0.0
15 14.02 Ю 2 20 км 10/10 600 м
[Cb cap]
-9.8 -13.2 76 -14 -14 1035.3 1017.7
18 14.02 Ю 3 20 км 10/10 600 м
[Sc]
-10.5 -14.0 75 -16 -16 1034.8 1017.2
21 14.02 Ю 1 20 км 10/10 1000 м
[Sc]
-11.7 -15.0 76 -14 -14 1034.4 1016.7
00 15.02 ЮЗ 1 20 км 10/8 1000 м
[Sc Ci fib]
-12.8 -15.7 79 -15 -15 1034.2 1016.5 -12.8 51
03 15.02 Ю 2 17 км 8/0
[Ci fib]
-15.9 -18.3 82 -21 -20 1034.0 1016.1 -16.9
06 15.02 Ю 2 15 км 10/0
[Ci fib]
-10.6 -14.5 73 -15 -12 1032.9 1015.3
09 15.02 Ю 3 16 км 6/0
[Ci fib]
-8.3 -13.4 67 -14 -13 1031.1 1013.7
12 15.02 Ю 3 10 км 10/0
[Ci]
-11.0 -14.8 73 -17 -17 1029.5 1011.9 -7.5
15 15.02 ЮВ 4 20 км 9/0
[Ci fib]
-9.4 -12.7 77 -16 -16 1027.4 1010.0
18 15.02 ЮВ 3 20 км 10/0
[Cs]
-10.6 -13.4 80 -17 -17 1025.7 1008.3
21 15.02 ЮВ 4 20 км 10/10 1000 м
[Sc]
-9.3 -12.8 76 -16 -16 1023.3 1006.0
00 16.02 Ю 4 20 км 8/0
[Ci fib]
-11.4 -15.0 75 -18 -18 1022.5 1005.0 -13.4 51
03 16.02 ЮВ 4
{10}
15 км 10/8 600 м
[Cb cap Ci fib]
-8.7 -13.2 70 -15 -15 1021.1 1003.8
06 16.02 Ю 5
{10}
19 км 10/3 1500 м
[Sc Ci ing]
-5.7 -10.2 71 -13 -12 1020.0 1003.0
09 16.02 Ю 6
{12}
21 км позёмок 10/10 1000 м
[Sc]
-5.5 -9.4 74 -13 -13 1020.1 1003.1
12 16.02 Ю 5
{12}
20 км позёмок 9/9 1000 м
[Sc]
-5.3 -8.5 78 -12 -12 1020.4 1003.4 -4.5
15 16.02 Ю 5
{11}
10 км слаб. снег {метель} 8/8 1000 м
[Sc]
-6.3 -9.1 80 -14 -14 1020.9 1003.8

 

Местоположение метеостанции Новосибирск (Новосибирская область, Россия): широта 54.90 долгота 82.95 высота над уровнем моря 131 м.

В архиве по умолчанию представлена погода в Новосибирске за последнюю неделю. Архивные данные за месяц целиком и за предыдущие месяцы, начиная с января 2011 года, Вы можете получить, выбрав интересующий диапазон дат из раскрывающегося списка и нажав кнопку "Ввод!".


*Определитесь, кто Вы:
робот инопланетянин человек

Внимание! Время в таблицах - всемирное. Для получения местного времени необходимо прибавить поправку, которая равна 7 ч.

Смотрите также архив погоды в соседних городах и на ближайших метеорологических станциях:

Погода в Обской ГМО (Новосибирская область, Россия) (6 км)
Погода в Учебной (Новосибирская область, Россия) (8 км)
Погода в Новосибирске планетарий (Новосибирская область, Россия) (10 км)
Погода в Новом (Новосибирская область, Россия) (17 км)
Погода в Искитиме (Новосибирская область, Россия) (37 км)
Погода в Коченево (Новосибирская область, Россия) (48 км)
Погода в Колывани (Новосибирская область, Россия) (49 км)
Погода в Мошково (Новосибирская область, Россия) (62 км)
Погода в Дальнем (Новосибирская область, Россия) (65 км)
Погода в Посевной (Новосибирская область, Россия) (71 км)

Пояснения к столбцам:

Ветер - указаны скорость ветра в м/с - средняя за 10 мин, порывы в срок и между сроками (в фигурных скобках) и направление, откуда дует ветер: С - северный, СВ - северо-восточный, В - восточный, ЮВ - юго-восточный, Ю - южный, ЮЗ - юго-западный, З - западный, СЗ - северо-западный.
Видимость - горизонтальная дальность видимости в метрах или километрах. При видимости от 1 до 10 км при отсутствии осадков обычно наблюдается дымка, при ухудшении видимости до 1 км и менее - туман. В сухую погоду видимость может ухудшаться дымом, пылью или мглою.
Явления - указаны атмосферные явления, наблюдавшиеся в срок или в последний час перед сроком; фигурными скобками обозначены явления, наблюдавшиеся между сроками (за 1-3 часа до срока); квадратными скобками обозначены град или гололедные отложения с указанием их диаметра в мм.
Облачность - указаны через наклонную черту общая и нижняя облачность в баллах и высота нижней границы облаков в метрах; квадратными скобками обозначены формы облаков: Ci - перистые, Cs - перисто-слоистые, Cc - перисто-кучевые, Ac - высококучевые, As - высокослоистые, Sc - слоисто-кучевые, Ns - слоисто-дождевые, Cu - кучевые, Cb - кучево-дождевые. Подробнее классификацию облаков см. в Атласе облаков (PDF).
T - Температура воздуха - температура, измеренная на высоте 2 м над землей.
Td - Температура точки росы - температура, при понижении до которой содержащийся в воздухе водяной пар достигнет насыщения.
f - Относительная влажность воздуха - влажноcть воздуха, измеренная на высоте 2 м над землей.
Te - Эффективная температура - температура, которую ощущает одетый по сезону человек в тени. Характеристика душности погоды. При расчете учитывается влияние влажности воздуха и скорости ветра на теплоощущения человека.
Tes - Эффективная температура на солнце - температура, которую ощущает человек, с поправкой на солнечный нагрев. Характеристика знойности погоды. Зависит от высоты солнца над горизонтом, облачности и скорости ветра. Ночью, в пасмурную погоду, а также при ветре 12 м/с и более поправка равна нулю.
P - Атмосферное давление - приведенное к уровню моря атмосферное давление.
Po - Атмосферное давление - измеренное на уровне метеостанции атмосферное давление.
Tmin - Минимальная температура - минимум температуры воздуха на высоте 2 м над землей.
Tmax - Максимальная температура - максимум температуры воздуха на высоте 2 м над землей.
R - Количество осадков - Количество выпавших осадков за период времени, мм. При наведении курсора мыши на число - период времени, за который выпало указанное количество осадков.
R24 - Количество осадков - Количество выпавших осадков за 24 часа, мм.
S - Снежный покров - Высота снежного покрова, см. При наведении курсора мыши на число - состояние снежного покрова и степень покрытия местности в баллах.